Weather in Komsomol'skiy

Russia / Belgorod Oblast     50°33′26″N   36°25′17″E
temp.,
°C
wind,
m/s
gust,
m/s
humid.,
%
clouds,
%
prec.,
mm/h
press.,
hPa
HPBL,
m
28 january, thu
thu2800:00+2se61491100 0.1 1003463
03:00+1ese61294100 0.3 1002398
06:00+2se61294100 0.1 1001447
09:00+1se61296100 2.6 1001384
12:00+2se61193100 0.0 1001465
15:00+3se61193100 0.0 1000448
18:00+3sse41294100 0.0 1001395
21:00+3s51290100 0.1 1000491
29 january, fri
fri2900:00+1sse6138761 0.1 1001596
03:00−1sse7138961 0.1 1000826
06:00−1s9149297 0.3 9981085
09:00−1ssw10159499 1.4 9981052
12:00−1sw101492100 1.1 1000989
15:00−1sw81280100 1.4 1001982
18:00−1ssw6147498 0.0 10011148
21:00−1ssw8139699 1.6 9991035
30 january, sat
sat3000:00−1sw61295100 1.0 998697
03:00−2wsw51089100 1.4 1000680
06:00−4wsw599192 0.1 1002479
09:00−4sw489094 0.1 1003365
12:00−2ssw5787100 0.0 1004485
15:000s4679100 0.0 1002401
18:000sse51198100 0.3 1000442
21:00+2ssw71498100 1.3 998569
31 january, sun
sun3100:00+2ssw61298100 2.8 997484
03:00+2ssw71498100 5.3 996551
06:00+3ssw71496100 1.8 993532
09:00+3sw91594100 2.0 994787
12:000wsw111685100 1.0 9971158
15:00−1w9137899 1.1 10021111
18:00−2w597891 0.0 1007812
21:00−2w577991 0.1 1009689
1 february, mon
mon100:00−3wsw248299 0.0 1011343
03:00−2sse238099 0.0 1011276
06:00−2ese5779100 0.0 1009337
09:00−2ese71196100 2.5 1007447
12:00+2se71599100 1.8 1003531
15:00+4sse81795100 5.3 998644
18:00+6ssw71796100 0.7 996564
21:00+4sw7179089 0.8 998614